Satellite-Ground Cal/Val Region Overpasses Predictions

Prediction of Satellite NPP Overpassing Cal/Val Region: PacNW

Region Location: (Latitude: 10.00, Longitude: 139.50) to (Latitude: 22.70, Longitude: 165.60).

Table of predicted overpasses for the next 14.0 days since TLE Epoch: 4/10/2020
Interval Starting Time Starting Location Ending Time Ending Location
1 04/11/2020 03:36:07 ( 10.05, 145.59) 04/11/2020 03:39:42 ( 22.67, 142.59)
2 04/11/2020 14:29:36 ( 11.75, 165.59) 04/11/2020 14:30:05 ( 10.05, 165.20)
3 04/11/2020 16:08:00 ( 22.66, 142.83) 04/11/2020 16:11:35 ( 10.04, 139.83)
4 04/12/2020 03:17:05 ( 10.01, 150.36) 04/12/2020 03:20:41 ( 22.69, 147.34)
5 04/12/2020 15:48:58 ( 22.64, 147.58) 04/12/2020 15:52:33 ( 10.02, 144.58)
6 04/13/2020 02:58:03 ( 10.03, 155.11) 04/13/2020 03:01:38 ( 22.65, 152.11)
7 04/13/2020 15:29:56 ( 22.68, 152.35) 04/13/2020 15:33:31 ( 10.06, 149.35)
8 04/14/2020 02:39:02 ( 10.05, 159.86) 04/14/2020 02:42:37 ( 22.67, 156.86)
9 04/14/2020 15:10:54 ( 22.66, 157.10) 04/14/2020 15:14:29 ( 10.04, 154.10)
10 04/15/2020 02:19:59 ( 10.02, 164.63) 04/15/2020 02:23:35 ( 22.70, 161.61)
11 04/15/2020 14:51:52 ( 22.70, 161.87) 04/15/2020 14:55:28 ( 10.02, 158.85)
12 04/16/2020 03:42:28 ( 10.04, 144.01) 04/16/2020 03:46:03 ( 22.67, 141.00)
13 04/16/2020 14:34:01 ( 18.51, 165.60) 04/16/2020 14:36:25 ( 10.05, 163.62)
14 04/16/2020 16:14:20 ( 22.67, 141.24) 04/16/2020 16:16:22 ( 15.51, 139.51)
15 04/17/2020 03:23:25 ( 10.01, 148.77) 04/17/2020 03:27:01 ( 22.69, 145.75)
16 04/17/2020 15:55:19 ( 22.64, 146.00) 04/17/2020 15:58:54 ( 10.02, 142.99)
17 04/18/2020 03:04:24 ( 10.03, 153.52) 04/18/2020 03:07:59 ( 22.65, 150.52)
18 04/18/2020 15:36:16 ( 22.68, 150.76) 04/18/2020 15:39:52 ( 10.00, 147.75)
19 04/19/2020 02:45:22 ( 10.05, 158.28) 04/19/2020 02:48:57 ( 22.68, 155.27)
20 04/19/2020 15:17:15 ( 22.66, 155.52) 04/19/2020 15:20:50 ( 10.04, 152.51)
21 04/20/2020 02:26:20 ( 10.02, 163.04) 04/20/2020 02:29:55 ( 22.64, 160.04)
22 04/20/2020 14:58:13 ( 22.69, 160.28) 04/20/2020 15:01:49 ( 10.01, 157.27)
23 04/21/2020 02:09:58 ( 19.44, 165.59) 04/21/2020 02:10:53 ( 22.67, 164.79)
24 04/21/2020 03:48:48 ( 10.05, 142.42) 04/21/2020 03:52:17 ( 22.32, 139.50)
25 04/21/2020 14:39:11 ( 22.67, 165.03) 04/21/2020 14:42:46 ( 10.05, 162.03)
26 04/21/2020 16:20:41 ( 22.66, 139.66) 04/21/2020 16:20:51 ( 22.08, 139.51)
27 04/22/2020 03:29:46 ( 10.02, 147.19) 04/22/2020 03:33:22 ( 22.70, 144.17)
28 04/22/2020 16:01:39 ( 22.70, 144.43) 04/22/2020 16:05:15 ( 10.02, 141.41)
29 04/23/2020 03:10:44 ( 10.04, 151.94) 04/23/2020 03:14:19 ( 22.67, 148.93)
30 04/23/2020 15:42:37 ( 22.67, 149.18) 04/23/2020 15:46:12 ( 10.05, 146.17)
31 04/24/2020 02:51:42 ( 10.01, 156.70) 04/24/2020 02:55:18 ( 22.69, 153.69)


NCC Satellite Cal/Val Overpasses Prediction Service
